[Iaude] MPEC X09: 2016 YM [a=2.51,e=0.59,i=14.6,H=22.0]

mpec at marsden.cfa.harvard.edu mpec at marsden.cfa.harvard.edu
Thu Dec 3 13:04:52 EST 2020


M.P.E.C. 2020-X09                              Issued 2020 December 3, 18:03 UT

     The Minor Planet Electronic Circulars contain information on unusual
         minor planets and routine data on comets.  They are published
    on behalf of Division F of the International Astronomical Union by the
          Minor Planet Center, Smithsonian Astrophysical Observatory,
                          Cambridge, MA 02138, U.S.A.

             Prepared using the Tamkin Foundation Computer Network

                              MPC at CFA.HARVARD.EDU
            URL https://www.minorplanetcenter.net/    ISSN 1523-6714

                                    2016 YM                                     


                           Revision to MPEC 2016-Y24                            

Additional Observations:
     K16Y00M  C2012 12 28.22291902 25 15.383-00 39 14.63         19.55GVEX009F51
     K16Y00M  C2012 12 28.23467402 25 21.507-00 40 26.00         19.30GVEX009F51
     K16Y00M  C2013 01 16.32080205 03 13.027-22 38 08.93         19.86GVEX009F51
     K16Y00M  C2013 01 16.33288705 03 17.531-22 38 30.67         20.00GVEX009F51
     K16Y00M  C2020 12 03.44871903 10 50.14 +62 14 21.9          18.15oVEX009T08
     K16Y00M  C2020 12 03.44918003 10 50.60 +62 14 20.8          17.93oVEX009T08
     K16Y00M  C2020 12 03.45288203 10 54.78 +62 14 06.9          17.86oVEX009T08
     K16Y00M  C2020 12 03.45426503 10 56.29 +62 14 02.1          17.80oVEX009T08

Observer details:
F51 Pan-STARRS 1, Haleakala.  Observers J. Bulger, K. Chambers, T. Lowe, A.
    Schultz, M. Willman.  Measurers S. Chastel, M. Huber, Y. Ramanjooloo, R.
    Wainscoat, R. Weryk.  1.8-m Ritchey-Chretien + CCD.
T08 ATLAS-MLO, Mauna Loa.  Observers L. Denneau, J. Tonry, A. Heinze, H.
    Weiland.  Measurers L. Denneau, J. Tonry, A. Heinze, H. Weiland, H.
    Flewelling, A. Fitzsimmons, J. Robinson, N. Erasmus.  0.5-m reflector +
    CCD.

First and last observations above in comparison with prediction:
Residuals in seconds of arc (or two decimals in degrees), reference and Delta-T
121228 F51 0.76+ 0.26+    201203 T08 1.66+ 0.48+    MPO403123   -0.13 days

Orbital elements:
2016 YM                                                  Earth MOID = 0.0516 AU
Epoch 2020 Dec. 17.0 TT = JDT 2459200.5                 Veres
M 359.95731              (2000.0)            P               Q
n   0.24794836     Peri.  183.34470     +0.05985264     -0.96640776
a   2.5093537      Node   263.33098     +0.92157832     +0.14970977
e   0.5874177      Incl.   14.57518     +0.38355060     -0.20890914
P   3.98           H   22.0           G   0.15           U   0
Residuals in seconds of arc
121228 F51  0.4-  0.2+    161219 H01  0.1-  0.0     161222 T05  0.2+  0.1+
121228 F51  0.2+  0.0     161219 I52  0.2-  0.1-    161222 T05  0.0   1.4+
130116 F51  0.1+  0.1+    161219 I52  0.1-  0.0     161222 T05  0.6+  0.6+
130116 F51  0.0   0.0     161219 I52  0.4-  0.2+    161222 203  0.1+  0.0
161218 G96  0.1-  0.1+    161219 I52  0.2-  0.3+    161222 203  0.1+  0.3-
161218 G96  0.1-  0.0     161219 H21  0.1+  0.1+    161223 W25  0.1+  0.3-
161218 G96  0.1-  0.1+    161219 H21  0.2+  0.1+    161223 W25  0.0   0.6-
161218 G96  0.1-  0.1+    161219 H21  0.2+  0.0     161223 130  0.4-  0.7-
161218 I52  0.3-  0.3-    161219 H21  0.0   0.1-    161223 130  0.1-  0.1-
161218 I52  0.1+  0.1-    161219 H21  0.1+  0.0     161223 130  0.2-  0.3+
161218 I52  0.2-  0.0     161219 H21  0.2+  0.0     161223 130  0.0   0.0
161218 I52  0.1-  0.0     161219 H36  0.7+  0.0     161223 160  0.0   0.2-
161218 H36  0.6+  0.3+    161219 H36  0.3+  0.5-    161223 160  0.1-  0.0
161218 H36  0.4-  0.1-    161219 H36  0.4+  0.3-    161223 160  0.2-  0.3+
161218 H36  1.0+  0.4-    161219 H36  0.5+  0.0     161224 G45  0.2-  0.2+
161218 I52  0.1-  0.1-    161219 H36  0.6+  0.4-    161224 G45  0.1+  0.2-
161218 I52  0.3-  0.3-    161219 718  0.0   0.1+    161224 G45  0.1+  0.0
161218 I52  0.1-  0.0     161219 718  0.1+  0.9-    161224 G45  0.2-  0.0
161218 I52  0.2+  0.6-    161219 718  0.5-  0.0     161224 G45  0.3-  0.1+
161218 718 (1.7-  3.5+)   161219 718  0.4-  0.3+    161225 H21  0.1+  0.3-
161218 718  0.3+  0.5+    161219 718  0.4-  0.2-    161225 H21  0.3+  0.1-
161218 I52  0.2-  0.1+    161219 Q62  0.1+  0.5-    161225 H21  0.1+  0.2-
161218 I52  0.3-  0.1+    161219 Q62  0.2+  0.1+    161225 H21  0.1+  0.1-
161218 718 (2.0-  1.9+)   161219 Q62  0.4+  0.6-    161225 H21  0.1+  0.2-
161218 I52  0.2-  0.1-    161219 E23  0.1-  0.1+    161225 H21  0.0   0.1-
161218 I52  0.2-  0.2-    161219 E23  0.2+  0.2+    161225 H21  0.0   0.0
161218 718 (1.6-  1.2+)   161219 E23  0.1-  0.4+    161225 H21  0.2-  0.1-
161218 300  0.0   0.5+    161219 K88  0.3-  0.2+    161229 474  0.0   0.1+
161218 300  0.2+  0.1+    161219 K88  0.2-  0.1+    161229 474  0.7+  0.5-
161218 300  0.3+  0.4+    161219 K88  0.5-  0.1-    161229 474  0.2-  0.0
161218 300  0.2-  0.3+    161219 K88  0.2-  0.0     161229 246  0.2-  0.3+
161218 300  1.1+  0.1+    161220 W25  0.1+  0.0     161229 246 (0.4-  2.4-)
161218 300  0.3+  0.0     161220 W25  0.3+  0.4-    161229 246  0.2+  0.5-
161218 300  0.3+  0.2+    161220 W25  0.2+  0.3-    161229 246  0.0   0.3+
161218 300  0.5+  0.1+    161220 H01  0.1+  0.1-    161229 246  0.1-  0.2+
161218 595  0.3+  0.4-    161220 H01  0.1-  0.1-    161229 246  0.5-  0.2-
161218 595  0.1-  0.0     161220 H01  0.0   0.1-    161230 246  0.4+  0.3-
161218 A81  0.4-  0.5+    161220 691  0.5-  0.1+    161230 246  0.4+  0.0
161218 595  0.0   0.0     161220 691  0.8-  0.6+    161230 246  0.3-  0.1-
161218 A81  0.2-  0.0     161220 691  0.3-  0.4+    161230 246  0.6+  0.2+
161218 A81  0.6-  0.2-    161220 Q62  1.0-  0.5+    161230 246  0.3-  0.3-
161218 A81  0.5-  0.4+    161220 Q62  0.7+  0.0     161230 246  0.4-  0.9-
161218 C77  0.4-  0.2-    161220 113  0.0   0.4-    161230 246  0.2+  0.4-
161218 C77  0.0   0.5+    161220 113  0.1-  0.4-    161230 246  0.1-  1.1-
161218 C77  0.2-  0.1+    161220 113  0.5+  0.5-    161231 807  0.2-  0.1+
161218 C77  0.2-  0.1-    161220 113  0.2-  0.5+    161231 807  0.1-  0.1+
161218 C77  0.3+  0.1+    161220 K88  0.1-  0.4+    161231 807  0.0   0.1+
161218 K63  0.5+  0.5+    161220 K88  0.2-  0.3+    170102 T05  0.3+  0.3+
161218 160  0.0   0.3+    161220 K88  0.2-  0.4+    170102 T05  0.0   0.6+
161218 I93  0.1-  0.2-    161221 H21  0.2-  0.2+    170102 T05  0.5-  0.8+
161218 160  0.1+  0.1+    161221 H21  0.4-  0.2+    170113 F51  0.0   0.1+
161218 160  0.0   0.2+    161221 H21  0.3-  0.2+    170113 F51  0.1-  0.1+
161218 I93  0.1-  0.1-    161221 H21  0.2-  0.2+    170113 F51  0.0   0.0
161218 K63  0.0   0.1+    161221 107  0.5+  1.2+    170113 F51  0.0   0.1-
161218 I93  0.0   0.1-    161221 107  0.0   0.7+    170116 807  0.1-  0.0
161218 K63  0.7+  0.2+    161221 107  0.1+  0.1+    170116 807  0.5+  0.9-
161218 958  0.8+  0.9-    161221 107  0.1+  0.1-    170116 807  0.3+  0.5-
161218 958 (0.7+  1.7-)   161222 204  0.0   0.3-    201203 T08  0.1+  0.6-
161218 958  0.6+  0.9-    161222 204  0.3-  0.1-    201203 T08  0.3-  0.0
161219 H01  0.1-  0.1-    161222 204  0.1+  0.2-    201203 T08  0.0   0.2-
161219 H01  0.0   0.1-    161222 204  0.2+  0.3-    201203 T08  0.2-  0.2+
161219 H01  0.1-  0.1-    161222 204  0.1+  0.3-

Ephemeris:
2016 YM                  a,e,i = 2.51, 0.59, 15                  q = 1.0353
Date    TT    R. A. (2000) Decl.     Delta      r    Elong.  Phase     V
2020 11 03    00 10 58.3 +59 01 25   0.2665  1.1774   128.8    41.0    21.1
...
2020 11 18    00 31 31.6 +62 34 25   0.1736  1.1009   126.6    46.1    20.2
...
2020 11 26    01 21 25.8 +64 09 46   0.1265  1.0707   128.8    45.9    19.4
...
2020 12 02    02 43 28.7 +63 18 59   0.09344 1.0537   134.7    41.7    18.6
2020 12 03    03 02 08.7 +62 37 23   0.08831 1.0514   136.3    40.3    18.4
2020 12 04    03 22 02.9 +61 38 56   0.08334 1.0492   138.2    38.7    18.3
...
2020 12 10    05 27 55.4 +46 18 12   0.05942 1.0395   156.3    22.4    17.0
...
2020 12 18    07 17 40.0 +02 45 37   0.05925 1.0354   149.3    29.0    17.2
...
2021 01 02    08 26 43.2 -31 54 28   0.1302  1.0553   120.5    53.4    19.6

A. U. Tomatic                (C) Copyright 2020 MPC           M.P.E.C. 2020-X09




More information about the Iaude mailing list